Cleveland Burke, OH

2:58 PM EDT on June 25, 2017 (GMT -0400)
Burke Lakefront

Weather History for KBKL - April, 2014

Change the Weather History Date:

Thursday, April 24, 2014

  Actual Average Record
Temperature  
Mean Temperature 44 °F -  
Max Temperature 52 °F 57 °F 71 °F (2017)
Min Temperature 37 °F 42 °F 33 °F (2015)
Degree Days  
Heating Degree Days 21    
Moisture  
Dew Point 26 °F    
Average Humidity 49    
Maximum Humidity 66    
Minimum Humidity 29    
Precipitation  
Precipitation 0.00 in - - ()
Sea Level Pressure  
Sea Level Pressure 30.09 in    
Wind  
Wind Speed 7 mph (NE)    
Max Wind Speed 18 mph    
Max Gust Speed 24 mph    
Visibility 10 miles    
Events      
Averages and records for this station are not official NWS values.
T = Trace of Precipitation, MM = Missing Value Source: NWS Daily Summary

Daily Weather History Graph

Daily Weather History Graph

Search for Another Location

Airport or City:

Trip Planner

Search our weather history database for the weather conditions in past years. The results will help you decide how hot, cold, wet, or windy it might be!

Date:

Astronomy

Apr. 24, 2014 Rise Set
Actual Time 6:33 AM EDT 8:17 PM EDT
Civil Twilight 6:03 AM EDT 8:46 PM EDT
Nautical Twilight 5:28 AM EDT 9:22 PM EDT
Astronomical Twilight 4:49 AM EDT 10:01 PM EDT
Moon 3:47 AM EDT (4/24) 3:27 PM EDT (4/24)
Length of Visible Light 14h 42m
Length of Day
13h 43m
Waning Crescent, 24% of the Moon is Illuminated
Apr 24
Waning Crescent
Apr 29
New
May 6
First Quarter
May 14
Full
May 21
Last Quarter

Hourly Weather History & Observations

Time (EDT) Temp. Windchill Dew Point Humidity Pressure Visibility Wind Dir Wind Speed Gust Speed Precip Events Conditions
12:53 AM 41.0 °F 38.0 °F 23.0 °F 49% 30.14 in 10.0 mi NE 4.6 mph - N/A   Clear
1:53 AM 41.0 °F 36.4 °F 21.9 °F 47% 30.14 in 10.0 mi NE 6.9 mph - N/A   Clear
2:53 AM 39.9 °F 35.8 °F 19.9 °F 45% 30.12 in 10.0 mi East 5.8 mph - N/A   Clear
3:53 AM 37.9 °F 34.4 °F 18.0 °F 45% 30.12 in 10.0 mi ENE 4.6 mph - N/A   Clear
4:53 AM 39.0 °F 36.8 °F 21.0 °F 49% 30.15 in 10.0 mi East 3.5 mph - N/A   Clear
5:53 AM 37.9 °F 34.4 °F 23.0 °F 55% 30.16 in 10.0 mi East 4.6 mph - N/A   Clear
6:53 AM 39.0 °F - 23.0 °F 53% 30.17 in 10.0 mi Calm Calm - N/A   Clear
7:53 AM 39.9 °F - 19.9 °F 45% 30.19 in 10.0 mi Calm Calm - N/A   Mostly Cloudy
8:53 AM 42.1 °F - 17.1 °F 37% 30.19 in 10.0 mi Calm Calm - N/A   Clear
9:53 AM 44.1 °F 41.5 °F 19.0 °F 37% 30.19 in 10.0 mi South 4.6 mph - N/A   Clear
10:53 AM 48.0 °F - 17.1 °F 29% 30.19 in 10.0 mi NE 3.5 mph - N/A   Overcast
11:53 AM 46.9 °F - 30.0 °F 52% 30.18 in 10.0 mi North 8.1 mph - N/A   Overcast
12:53 PM 46.0 °F 40.2 °F 32.0 °F 58% 30.15 in 10.0 mi NNE 12.7 mph - N/A   Scattered Clouds
1:53 PM 46.9 °F - 36.0 °F 66% 30.12 in 10.0 mi North 10.4 mph - N/A   Clear
2:53 PM 46.9 °F - 34.0 °F 61% 30.09 in 10.0 mi NNE 13.8 mph - N/A   Clear
3:53 PM 48.0 °F - 26.1 °F 42% 30.06 in 10.0 mi NNE 18.4 mph 24.2 mph N/A   Clear
4:53 PM 46.9 °F - 28.0 °F 48% 30.05 in 10.0 mi NNE 15.0 mph 24.2 mph N/A   Clear
5:53 PM 46.9 °F - 30.0 °F 52% 30.02 in 10.0 mi NE 16.1 mph - N/A   Clear
6:53 PM 46.9 °F - 33.1 °F 59% 30.00 in 10.0 mi NE 12.7 mph - N/A   Clear
7:53 PM 46.9 °F - 33.1 °F 59% 29.99 in 10.0 mi NNE 11.5 mph - N/A   Clear
8:53 PM 48.0 °F - 34.0 °F 58% 29.98 in 10.0 mi NE 10.4 mph - N/A   Partly Cloudy
9:53 PM 48.9 °F - 34.0 °F 56% 29.94 in 10.0 mi NE 8.1 mph - N/A   Overcast
10:53 PM 51.1 °F - 23.0 °F 33% 29.92 in 10.0 mi East 5.8 mph - N/A   Clear
11:53 PM 51.1 °F - 25.0 °F 36% 29.88 in 10.0 mi ESE 4.6 mph - N/A   Clear